Overview Statistics Trail Chart Weather Telemetry Raw packets
 

This is the latest recevied weather packets stored in our database for station/object N7ZEF. If no packets are shown the sender has not sent any weather packets the latest 10 day(s).

<< 26 27 28 29 30 31 32 >>
Time Temp. Humidity Pressure Rain* Wind** Luminosity Snow
1777776497 12.78° C 19% 1019.3 hPa 0 mm - - -
1777775895 13.33° C 21% 1019.2 hPa 0 mm - - -
1777775294 13.33° C 21% 1019 hPa 0 mm - - -
1777774693 13.89° C 20% 1019 hPa 0 mm - - -
1777774091 14.44° C 18% 1018.9 hPa 0 mm - - -
1777773490 15° C 16% 1018.9 hPa 0 mm - - -
1777772888 15° C 16% 1018.9 hPa 0 mm - - -
1777772287 15.56° C 15% 1019 hPa 0 mm - - -
1777771686 16.11° C 14% 1018.9 hPa 0 mm - - -
1777771084 16.11° C 13% 1019 hPa 0 mm - - -
1777770483 16.67° C 12% 1019 hPa 0 mm - - -
1777769881 16.67° C 11% 1019.2 hPa 0 mm - - -
1777769280 17.78° C 10% 1019.2 hPa 0 mm - - -
1777768679 17.78° C 10% 1019.3 hPa 0 mm - - -
1777768077 17.78° C 10% 1019.4 hPa 0 mm - - -
1777767474 18.33° C 9% 1019.4 hPa 0 mm - - -
1777766873 18.89° C 10% 1019.7 hPa 0 mm - - -
1777766271 18.33° C 10% 1019.7 hPa 0 mm - - -
1777765670 18.89° C 9% 1019.9 hPa 0 mm - - -
1777765068 18.89° C 9% 1020.1 hPa 0 mm - - -
1777764467 19.44° C 10% 1020.1 hPa 0 mm - - -
1777763866 19.44° C 9% 1020.2 hPa 0 mm - - -
1777763264 19.44° C 10% 1020.3 hPa 0 mm - - -
1777762663 19.44° C 10% 1020.4 hPa 0 mm - - -
1777762061 19.44° C 10% 1020.6 hPa 0 mm - - -

* Rain latest hour (hover to see other rain measurements)
** Current wind speed in m/s (hover to see current wind gust speed)